SCP
0 0 0 0 0 0 0 0 0 0 0 0 0 0 0 0 0 0 0 0 0 0
0 0 0 0 0 0 0 0 0 0 0 0 0 0 0 0 0 0 0 0 0 0
0 0 0 0 0 0 0 0 0 0 0 0 0 0 0 0 0 0 0 0 0 0
0 0 0 0 0 0 0 0 0 0 0 0 0 0 0 0 0 0 0 0 0 0
0 0 0 0 0 0 0 0 0 0 0 0 0 0 0 0 0 0 0 0 0 0
0 0 0 0 0 0 0 0 0 0 0 0 0 0 0 0 0 0 0 0 0 0
0 0 0 0 0 0 0 0 0 0 0 0 0 0 0 0 0 0 0 0 0 0
0 0 0 0 0 0 0 0 0 0 0 0 0 0 0 0 0 0 0 0 0 0
0 0 0 0 0 0 0 0 0 0 0 0 0 0 0 0 0 0 0 0 0 0
0 0 0 0 0 0 0 0 0 0 0 0 0 0 0 0 0 0 0 0 0 0
0 0 0 0 0 0 0 0 0 0 0 0 0 0 0 0 0 0 0 0 0 0
0 0 0 0 0 0 0 0 0 0 0 0 0 0 0 0 0 0 0 0 0 0
0 0 0 0 0 0 0 0 0 0 0 0 0 0 0 0 0 0 0 0 0 0
0 0 0 0 0 0 0 0 0 0 0 0 0 0 0 0 0 0 0 0 0 0
Wind_Speed_500mb
43 41 24 25 32 30 29 27 26 25 31 32 35 38 39 42 44 46 44 48 49 49
30 33 21 18 21 26 31 29 32 30 31 32 34 36 37 39 38 40 41 43 45 50
16 19 22 20 20 21 22 24 25 26 27 28 27 26 28 30 34 38 41 45 49 53
15 17 17 16 16 15 15 12 11 12 14 17 20 26 29 33 37 40 42 45 49 52
18 17 16 15 12 9 6 5 8 10 14 17 20 24 27 30 33 37 42 44 48 50
19 17 13 10 7 4 2 3 6 10 14 18 21 26 30 34 37 39 42 44 47 50
18 15 12 9 6 2 5 8 11 15 20 23 26 30 33 37 41 44 46 48 51 54
16 13 9 6 4 4 7 11 15 19 23 28 32 37 42 46 49 54 56 57 60 62
14 11 7 4 3 6 11 17 23 28 32 36 41 46 51 56 59 61 64 66 65 66
9 6 2 4 9 15 21 27 32 36 40 42 45 50 54 58 62 66 67 69 73 74
5 3 8 14 20 25 30 35 41 44 47 49 50 55 59 63 67 70 72 73 74 75
6 12 18 24 28 33 39 43 46 48 51 55 54 58 61 66 71 73 74 73 71 72
17 22 26 31 37 42 46 48 51 52 54 55 57 59 62 65 71 75 76 75 71 70
23 26 31 36 40 43 46 50 54 57 58 61 62 63 62 62 64 65 69 70 71 69
Wind_Direction_500mb
216 219 225 231 232 240 247 250 254 255 255 255 259 269 262 274 277 278 280 285 286 286
213 209 217 230 228 231 238 247 250 253 253 257 265 264 272 273 277 279 284 287 291 291
180 184 198 208 217 224 228 232 239 249 256 259 263 268 276 282 286 289 294 295 295 295
163 168 176 188 202 210 218 224 232 238 253 270 281 287 291 295 299 302 302 302 303 303
144 143 147 149 151 163 180 221 265 273 281 288 295 299 302 304 305 305 306 306 304 305
143 144 146 143 142 153 234 286 315 318 314 313 314 314 313 313 311 309 308 309 309 310
148 149 150 149 143 91 7 354 341 333 329 324 321 317 315 314 314 314 314 314 313 313
148 143 134 116 87 44 1 344 336 332 326 323 322 321 319 317 316 316 315 315 314 314
146 141 136 112 24 343 333 329 328 325 325 325 323 320 318 316 315 313 312 311 309 308
153 160 192 314 325 329 328 328 327 322 319 317 317 314 312 311 310 309 310 310 311 310
178 279 320 324 322 321 321 320 320 319 316 315 315 312 311 310 309 308 309 310 310 310
307 313 312 311 312 316 317 317 316 316 315 314 315 312 312 311 310 309 309 310 311 312
301 299 307 314 318 319 319 318 317 316 316 316 315 314 315 314 313 312 311 309 310 310
295 307 314 317 317 316 316 315 314 313 315 315 317 319 319 317 314 312 310 311 314 317
Wind_Speed_850mb
43 41 24 25 32 30 29 27 26 25 31 32 35 38 39 42 44 46 44 48 49 49
30 33 21 18 21 26 31 29 32 30 31 32 34 36 37 39 38 40 41 43 45 50
16 19 22 20 20 21 22 24 25 26 27 28 27 26 28 30 34 38 41 45 49 53
15 17 17 16 16 15 15 12 11 12 14 17 20 26 29 33 37 40 42 45 49 52
18 17 16 15 12 9 6 5 8 10 14 17 20 24 27 30 33 37 42 44 48 50
19 17 13 10 7 4 2 3 6 10 14 18 21 26 30 34 37 39 42 44 47 50
18 15 12 9 6 2 5 8 11 15 20 23 26 30 33 37 41 44 46 48 51 54
16 13 9 6 4 4 7 11 15 19 23 28 32 37 42 46 49 54 56 57 60 62
14 11 7 4 3 6 11 17 23 28 32 36 41 46 51 56 59 61 64 66 65 66
9 6 2 4 9 15 21 27 32 36 40 42 45 50 54 58 62 66 67 69 73 74
5 3 8 14 20 25 30 35 41 44 47 49 50 55 59 63 67 70 72 73 74 75
6 12 18 24 28 33 39 43 46 48 51 55 54 58 61 66 71 73 74 73 71 72
17 22 26 31 37 42 46 48 51 52 54 55 57 59 62 65 71 75 76 75 71 70
23 26 31 36 40 43 46 50 54 57 58 61 62 63 62 62 64 65 69 70 71 69
Wind_Direction_850mb
216 219 225 231 232 240 247 250 254 255 255 255 259 269 262 274 277 278 280 285 286 286
213 209 217 230 228 231 238 247 250 253 253 257 265 264 272 273 277 279 284 287 291 291
180 184 198 208 217 224 228 232 239 249 256 259 263 268 276 282 286 289 294 295 295 295
163 168 176 188 202 210 218 224 232 238 253 270 281 287 291 295 299 302 302 302 303 303
144 143 147 149 151 163 180 221 265 273 281 288 295 299 302 304 305 305 306 306 304 305
143 144 146 143 142 153 234 286 315 318 314 313 314 314 313 313 311 309 308 309 309 310
148 149 150 149 143 91 7 354 341 333 329 324 321 317 315 314 314 314 314 314 313 313
148 143 134 116 87 44 1 344 336 332 326 323 322 321 319 317 316 316 315 315 314 314
146 141 136 112 24 343 333 329 328 325 325 325 323 320 318 316 315 313 312 311 309 308
153 160 192 314 325 329 328 328 327 322 319 317 317 314 312 311 310 309 310 310 311 310
178 279 320 324 322 321 321 320 320 319 316 315 315 312 311 310 309 308 309 310 310 310
307 313 312 311 312 316 317 317 316 316 315 314 315 312 312 311 310 309 309 310 311 312
301 299 307 314 318 319 319 318 317 316 316 316 315 314 315 314 313 312 311 309 310 310
295 307 314 317 317 316 316 315 314 313 315 315 317 319 319 317 314 312 310 311 314 317